| time (UTC) | temp F | wind direction | speed MPH | gust MPH | rain 1hr in | rain 24hr in | rain mn in | humidity % | barometer mb |
| 20260504232442 | 74 | 0 | 0.0 | 5.0 | 0.00 | 0.00 | 0.00 | 42 | 1015.8 |
| 20260504231940 | 74 | 0 | 0.0 | 5.0 | 0.00 | 0.00 | 0.00 | 42 | 1015.8 |
| 20260504231445 | 74 | 63 | 2.0 | 5.0 | 0.00 | 0.00 | 0.00 | 41 | 1015.8 |
| 20260504230941 | 75 | 228 | 1.0 | 5.0 | 0.00 | 0.00 | 0.00 | 42 | 1015.8 |
| 20260504230437 | 75 | 221 | 0.0 | 3.0 | 0.00 | 0.00 | 0.00 | 43 | 1015.8 |
| 20260504225941 | 75 | 234 | 2.0 | 3.0 | 0.00 | 0.00 | 0.00 | 41 | 1015.8 |
| 20260504225441 | 75 | 256 | 1.0 | 3.0 | 0.00 | 0.00 | 0.00 | 40 | 1015.8 |
| 20260504224940 | 75 | 160 | 0.0 | 5.0 | 0.00 | 0.00 | 0.00 | 41 | 1015.6 |
| 20260504224442 | 75 | 0 | 0.0 | 5.0 | 0.00 | 0.00 | 0.00 | 39 | 1015.7 |
| 20260504223941 | 75 | 193 | 1.0 | 2.0 | 0.00 | 0.00 | 0.00 | 41 | 1015.8 |
| 20260504223438 | 76 | 205 | 0.0 | 3.0 | 0.00 | 0.00 | 0.00 | 41 | 1015.6 |
| 20260504222944 | 76 | 0 | 0.0 | 4.0 | 0.00 | 0.00 | 0.00 | 40 | 1015.6 |
| 20260504222441 | 76 | 0 | 0.0 | 4.0 | 0.00 | 0.00 | 0.00 | 41 | 1015.8 |
| 20260504221943 | 76 | 229 | 1.0 | 4.0 | 0.00 | 0.00 | 0.00 | 40 | 1015.8 |
| 20260504221442 | 76 | 210 | 1.0 | 4.0 | 0.00 | 0.00 | 0.00 | 41 | 1015.7 |
| 20260504220939 | 76 | 165 | 1.0 | 3.0 | 0.00 | 0.00 | 0.00 | 41 | 1015.7 |
| 20260504220443 | 76 | 0 | 0.0 | 4.0 | 0.00 | 0.00 | 0.00 | 39 | 1015.6 |
| 20260504215939 | 77 | 0 | 0.0 | 4.0 | 0.00 | 0.00 | 0.00 | 39 | 1015.5 |
| 20260504215438 | 77 | 254 | 1.0 | 4.0 | 0.00 | 0.00 | 0.00 | 38 | 1015.6 |
| 20260504214939 | 77 | 217 | 0.0 | 5.0 | 0.00 | 0.00 | 0.00 | 39 | 1015.6 |
| 20260504214439 | 77 | 245 | 1.0 | 6.0 | 0.00 | 0.00 | 0.00 | 37 | 1015.6 |
| 20260504213941 | 77 | 244 | 2.0 | 6.0 | 0.00 | 0.00 | 0.00 | 37 | 1015.6 |
| 20260504213441 | 77 | 248 | 4.0 | 4.0 | 0.00 | 0.00 | 0.00 | 37 | 1015.6 |
| 20260504212937 | 77 | 0 | 0.0 | 3.0 | 0.00 | 0.00 | 0.00 | 38 | 1015.6 |
| 20260504212439 | 77 | 226 | 2.0 | 5.0 | 0.00 | 0.00 | 0.00 | 40 | 1015.5 |
| 20260504211937 | 77 | 231 | 1.0 | 6.0 | 0.00 | 0.00 | 0.00 | 38 | 1015.5 |
| 20260504211441 | 78 | 250 | 1.0 | 6.0 | 0.00 | 0.00 | 0.00 | 37 | 1015.6 |
| 20260504210942 | 77 | 210 | 1.0 | 5.0 | 0.00 | 0.00 | 0.00 | 38 | 1015.6 |
| 20260504210441 | 77 | 239 | 1.0 | 5.0 | 0.00 | 0.00 | 0.00 | 37 | 1015.6 |
| 20260504205940 | 78 | 0 | 0.0 | 5.0 | 0.00 | 0.00 | 0.00 | 35 | 1015.6 |
| 20260504205441 | 78 | 247 | 1.0 | 4.0 | 0.00 | 0.00 | 0.00 | 38 | 1015.7 |
| 20260504204937 | 78 | 231 | 1.0 | 6.0 | 0.00 | 0.00 | 0.00 | 37 | 1015.7 |
| 20260504204436 | 77 | 257 | 2.0 | 6.0 | 0.00 | 0.00 | 0.00 | 37 | 1015.8 |
| 20260504203938 | 77 | 244 | 1.0 | 4.0 | 0.00 | 0.00 | 0.00 | 37 | 1015.8 |
| 20260504203439 | 78 | 0 | 0.0 | 3.0 | 0.00 | 0.00 | 0.00 | 38 | 1016.0 |
| 20260504202936 | 77 | 186 | 0.0 | 4.0 | 0.00 | 0.00 | 0.00 | 38 | 1015.9 |
| 20260504202439 | 77 | 197 | 0.0 | 4.0 | 0.00 | 0.00 | 0.00 | 36 | 1015.9 |
| 20260504201938 | 78 | 0 | 0.0 | 4.0 | 0.00 | 0.00 | 0.00 | 35 | 1016.1 |
| 20260504201437 | 79 | 238 | 1.0 | 4.0 | 0.00 | 0.00 | 0.00 | 36 | 1016.2 |
| 20260504200938 | 79 | 172 | 0.0 | 2.0 | 0.00 | 0.00 | 0.00 | 35 | 1016.1 |
| 20260504200440 | 79 | 0 | 0.0 | 3.0 | 0.00 | 0.00 | 0.00 | 37 | 1016.2 |
| 20260504195939 | 79 | 210 | 2.0 | 3.0 | 0.00 | 0.00 | 0.00 | 36 | 1016.3 |
| 20260504195439 | 79 | 0 | 0.0 | 3.0 | 0.00 | 0.00 | 0.00 | 37 | 1016.3 |
| 20260504194939 | 79 | 0 | 0.0 | 3.0 | 0.00 | 0.00 | 0.00 | 38 | 1016.3 |
| 20260504194442 | 78 | 238 | 1.0 | 3.0 | 0.00 | 0.00 | 0.00 | 38 | 1016.4 |
| 20260504193939 | 78 | 0 | 0.0 | 3.0 | 0.00 | 0.00 | 0.00 | 38 | 1016.5 |
| 20260504193438 | 78 | 257 | 2.0 | 3.0 | 0.00 | 0.00 | 0.00 | 38 | 1016.6 |
| 20260504192937 | 79 | 0 | 0.0 | 5.0 | 0.00 | 0.00 | 0.00 | 36 | 1016.6 |
| 20260504192442 | 79 | 244 | 1.0 | 5.0 | 0.00 | 0.00 | 0.00 | 38 | 1016.7 |
| 20260504191941 | 79 | 243 | 1.0 | 3.0 | 0.00 | 0.00 | 0.00 | 37 | 1016.7 |
| 20260504191442 | 79 | 233 | 1.0 | 3.0 | 0.00 | 0.00 | 0.00 | 36 | 1016.7 |
| 20260504190938 | 79 | 231 | 2.0 | 3.0 | 0.00 | 0.00 | 0.00 | 37 | 1016.8 |
| 20260504190440 | 79 | 288 | 1.0 | 4.0 | 0.00 | 0.00 | 0.00 | 36 | 1016.8 |
| 20260504185939 | 79 | 227 | 1.0 | 4.0 | 0.00 | 0.00 | 0.00 | 36 | 1017.0 |
| 20260504185441 | 79 | 219 | 1.0 | 4.0 | 0.00 | 0.00 | 0.00 | 40 | 1017.1 |
| 20260504184940 | 79 | 0 | 0.0 | 2.0 | 0.00 | 0.00 | 0.00 | 39 | 1017.0 |
| 20260504184436 | 79 | 211 | 0.0 | 4.0 | 0.00 | 0.00 | 0.00 | 40 | 1017.1 |
| 20260504183942 | 78 | 0 | 0.0 | 4.0 | 0.00 | 0.00 | 0.00 | 44 | 1017.0 |
| 20260504183438 | 77 | 239 | 1.0 | 5.0 | 0.00 | 0.00 | 0.00 | 39 | 1017.0 |
| 20260504182938 | 77 | 199 | 2.0 | 5.0 | 0.00 | 0.00 | 0.00 | 39 | 1017.1 |
| 20260504182436 | 78 | 203 | 1.0 | 3.0 | 0.00 | 0.00 | 0.00 | 40 | 1017.3 |
| 20260504181942 | 77 | 143 | 0.0 | 5.0 | 0.00 | 0.00 | 0.00 | 40 | 1017.5 |
| 20260504181438 | 76 | 105 | 1.0 | 5.0 | 0.00 | 0.00 | 0.00 | 43 | 1017.5 |
| 20260504180941 | 76 | 219 | 3.0 | 5.0 | 0.00 | 0.00 | 0.00 | 42 | 1017.5 |
| 20260504180441 | 76 | 183 | 1.0 | 5.0 | 0.00 | 0.00 | 0.00 | 40 | 1017.5 |
| 20260504175944 | 75 | 202 | 1.0 | 6.0 | 0.00 | 0.00 | 0.00 | 42 | 1017.5 |
| 20260504175441 | 75 | 264 | 4.0 | 6.0 | 0.00 | 0.00 | 0.00 | 41 | 1017.7 |
| 20260504174938 | 75 | 244 | 0.0 | 5.0 | 0.00 | 0.00 | 0.00 | 43 | 1017.7 |
| 20260504174441 | 76 | 205 | 4.0 | 5.0 | 0.00 | 0.00 | 0.00 | 40 | 1017.7 |
| 20260504173939 | 76 | 207 | 3.0 | 5.0 | 0.00 | 0.00 | 0.00 | 40 | 1017.7 |
| 20260504173439 | 76 | 187 | 2.0 | 3.0 | 0.00 | 0.00 | 0.00 | 40 | 1017.8 |
| 20260504172939 | 76 | 172 | 1.0 | 3.0 | 0.00 | 0.00 | 0.00 | 43 | 1017.9 |
| 20260504172437 | 75 | 0 | 0.0 | 3.0 | 0.00 | 0.00 | 0.00 | 43 | 1018.1 |
| 20260504171941 | 76 | 267 | 3.0 | 3.0 | 0.00 | 0.00 | 0.00 | 42 | 1018.1 |
| 20260504171437 | 77 | 235 | 1.0 | 2.0 | 0.00 | 0.00 | 0.00 | 41 | 1018.2 |
| 20260504170943 | 76 | 236 | 0.0 | 2.0 | 0.00 | 0.00 | 0.00 | 41 | 1018.2 |
| 20260504170437 | 76 | 0 | 0.0 | 5.0 | 0.00 | 0.00 | 0.00 | 45 | 1018.3 |
| 20260504160437 | 74 | 193 | 1.0 | 4.0 | 0.00 | 0.00 | 0.00 | 45 | 1019.2 |
| 20260504150942 | 72 | 180 | 1.0 | 3.0 | 0.00 | 0.00 | 0.00 | 47 | 1019.5 |
| 20260504150441 | 72 | 172 | 1.0 | 5.0 | 0.00 | 0.00 | 0.00 | 46 | 1019.5 |
| 20260504140944 | 68 | 0 | 0.0 | 0.0 | 0.00 | 0.00 | 0.00 | 53 | 1019.6 |
| 20260504140439 | 68 | 0 | 0.0 | 0.0 | 0.00 | 0.00 | 0.00 | 53 | 1019.7 |
| 20260504130439 | 62 | 0 | 0.0 | 0.0 | 0.00 | 0.00 | 0.00 | 62 | 1019.6 |
| 20260504110441 | 44 | 0 | 0.0 | 0.0 | 0.00 | 0.00 | 0.00 | 88 | 1019.1 |
| 20260504100440 | 44 | 0 | 0.0 | 0.0 | 0.00 | 0.00 | 0.00 | 86 | 1019.1 |
| 20260504081939 | 46 | 0 | 0.0 | 0.0 | 0.00 | 0.00 | 0.00 | 83 | 1019.1 |
| 20260504081442 | 46 | 0 | 0.0 | 0.0 | 0.00 | 0.00 | 0.00 | 83 | 1019.0 |
| 20260504080941 | 46 | 0 | 0.0 | 0.0 | 0.00 | 0.00 | 0.00 | 83 | 1019.0 |
| 20260504080438 | 47 | 0 | 0.0 | 0.0 | 0.00 | 0.00 | 0.00 | 82 | 1019.1 |
| 20260504070340 | 48 | 0 | 0.0 | 0.0 | 0.00 | 0.00 | 0.00 | 76 | 1019.3 |
| 20260504050340 | 51 | 0 | 0.0 | 0.0 | 0.00 | 0.00 | 0.00 | 72 | 1019.6 |
| 20260504045839 | 51 | 0 | 0.0 | 0.0 | 0.00 | 0.00 | 0.00 | 72 | 1019.6 |
| 20260504045340 | 52 | 0 | 0.0 | 0.0 | 0.00 | 0.00 | 0.00 | 72 | 1019.5 |
| 20260504044842 | 52 | 0 | 0.0 | 0.0 | 0.00 | 0.00 | 0.00 | 72 | 1019.5 |
| 20260504044342 | 52 | 0 | 0.0 | 0.0 | 0.00 | 0.00 | 0.00 | 72 | 1019.4 |
| 20260504043839 | 52 | 0 | 0.0 | 0.0 | 0.00 | 0.00 | 0.00 | 72 | 1019.5 |
| 20260504043342 | 52 | 0 | 0.0 | 0.0 | 0.00 | 0.00 | 0.00 | 70 | 1019.4 |
| 20260504042838 | 52 | 0 | 0.0 | 0.0 | 0.00 | 0.00 | 0.00 | 69 | 1019.5 |
| 20260504042338 | 52 | 0 | 0.0 | 0.0 | 0.00 | 0.00 | 0.00 | 69 | 1019.4 |
| 20260504041844 | 52 | 0 | 0.0 | 0.0 | 0.00 | 0.00 | 0.00 | 68 | 1019.5 |
| 20260504041336 | 53 | 0 | 0.0 | 0.0 | 0.00 | 0.00 | 0.00 | 68 | 1019.5 |
| 20260504040838 | 53 | 0 | 0.0 | 0.0 | 0.00 | 0.00 | 0.00 | 68 | 1019.6 |
| 20260504040338 | 53 | 0 | 0.0 | 0.0 | 0.00 | 0.00 | 0.00 | 68 | 1019.6 |
| 20260504035841 | 53 | 0 | 0.0 | 0.0 | 0.00 | 0.00 | 0.00 | 67 | 1019.7 |
| 20260504035337 | 54 | 0 | 0.0 | 0.0 | 0.00 | 0.00 | 0.00 | 65 | 1019.7 |
| 20260504034839 | 54 | 0 | 0.0 | 0.0 | 0.00 | 0.00 | 0.00 | 65 | 1019.7 |
| 20260504034342 | 54 | 0 | 0.0 | 0.0 | 0.00 | 0.00 | 0.00 | 66 | 1019.7 |
| 20260504033836 | 53 | 0 | 0.0 | 0.0 | 0.00 | 0.00 | 0.00 | 66 | 1019.6 |
| 20260504033337 | 53 | 0 | 0.0 | 0.0 | 0.00 | 0.00 | 0.00 | 67 | 1019.6 |
| 20260504032836 | 53 | 0 | 0.0 | 0.0 | 0.00 | 0.00 | 0.00 | 67 | 1019.5 |
| 20260504032340 | 53 | 0 | 0.0 | 0.0 | 0.00 | 0.00 | 0.00 | 66 | 1019.6 |
| 20260504031842 | 53 | 0 | 0.0 | 0.0 | 0.00 | 0.00 | 0.00 | 66 | 1019.6 |
| 20260504031338 | 53 | 0 | 0.0 | 0.0 | 0.00 | 0.00 | 0.00 | 67 | 1019.6 |
| 20260504030841 | 53 | 0 | 0.0 | 0.0 | 0.00 | 0.00 | 0.00 | 65 | 1019.6 |
| 20260504030341 | 54 | 0 | 0.0 | 0.0 | 0.00 | 0.00 | 0.00 | 65 | 1019.6 |
| 20260504025841 | 54 | 0 | 0.0 | 0.0 | 0.00 | 0.00 | 0.00 | 64 | 1019.6 |
| 20260504025341 | 54 | 0 | 0.0 | 0.0 | 0.00 | 0.00 | 0.00 | 63 | 1019.7 |
| 20260504024837 | 54 | 0 | 0.0 | 0.0 | 0.00 | 0.00 | 0.00 | 63 | 1019.5 |
| 20260504024338 | 55 | 0 | 0.0 | 0.0 | 0.00 | 0.00 | 0.00 | 63 | 1019.5 |
| 20260504023841 | 55 | 0 | 0.0 | 0.0 | 0.00 | 0.00 | 0.00 | 62 | 1019.5 |
| 20260504023337 | 55 | 0 | 0.0 | 0.0 | 0.00 | 0.00 | 0.00 | 61 | 1019.6 |
| 20260504022840 | 55 | 0 | 0.0 | 0.0 | 0.00 | 0.00 | 0.00 | 61 | 1019.4 |
| 20260504022336 | 56 | 0 | 0.0 | 0.0 | 0.00 | 0.00 | 0.00 | 60 | 1019.4 |
| 20260504021838 | 56 | 0 | 0.0 | 0.0 | 0.00 | 0.00 | 0.00 | 58 | 1019.3 |
| 20260504021342 | 56 | 0 | 0.0 | 0.0 | 0.00 | 0.00 | 0.00 | 59 | 1019.3 |
| 20260504020837 | 57 | 0 | 0.0 | 0.0 | 0.00 | 0.00 | 0.00 | 59 | 1019.3 |
| 20260504020337 | 57 | 0 | 0.0 | 0.0 | 0.00 | 0.00 | 0.00 | 56 | 1019.2 |
| 20260504015839 | 57 | 0 | 0.0 | 0.0 | 0.00 | 0.00 | 0.00 | 57 | 1019.1 |
| 20260504015339 | 57 | 0 | 0.0 | 0.0 | 0.00 | 0.00 | 0.00 | 56 | 1018.9 |
| 20260504014837 | 57 | 0 | 0.0 | 1.0 | 0.00 | 0.00 | 0.00 | 56 | 1019.0 |
| 20260504014338 | 58 | 0 | 0.0 | 1.0 | 0.00 | 0.00 | 0.00 | 56 | 1019.0 |
| 20260504013838 | 58 | 0 | 0.0 | 0.0 | 0.00 | 0.00 | 0.00 | 56 | 1018.9 |
| 20260504013339 | 58 | 0 | 0.0 | 0.0 | 0.00 | 0.00 | 0.00 | 56 | 1018.9 |
| 20260504012841 | 58 | 0 | 0.0 | 0.0 | 0.00 | 0.00 | 0.00 | 56 | 1018.8 |
| 20260504012335 | 58 | 0 | 0.0 | 0.0 | 0.00 | 0.00 | 0.00 | 55 | 1018.7 |
| 20260504011835 | 58 | 0 | 0.0 | 0.0 | 0.00 | 0.00 | 0.00 | 54 | 1018.7 |
| 20260504011340 | 59 | 0 | 0.0 | 0.0 | 0.00 | 0.00 | 0.00 | 54 | 1018.7 |
| 20260504010842 | 59 | 0 | 0.0 | 0.0 | 0.00 | 0.00 | 0.00 | 53 | 1018.8 |
| 20260504010341 | 60 | 0 | 0.0 | 0.0 | 0.00 | 0.00 | 0.00 | 52 | 1018.6 |
| 20260504005838 | 60 | 0 | 0.0 | 0.0 | 0.00 | 0.00 | 0.00 | 51 | 1018.5 |
| 20260504005342 | 61 | 0 | 0.0 | 0.0 | 0.00 | 0.00 | 0.00 | 50 | 1018.4 |
| 20260504004840 | 61 | 0 | 0.0 | 0.0 | 0.00 | 0.00 | 0.00 | 50 | 1018.5 |
| 20260504004338 | 62 | 0 | 0.0 | 0.0 | 0.00 | 0.00 | 0.00 | 48 | 1018.4 |
| 20260504003836 | 62 | 0 | 0.0 | 0.0 | 0.00 | 0.00 | 0.00 | 47 | 1018.5 |
| 20260504003340 | 63 | 0 | 0.0 | 0.0 | 0.00 | 0.00 | 0.00 | 47 | 1018.3 |
| 20260504002835 | 63 | 0 | 0.0 | 0.0 | 0.00 | 0.00 | 0.00 | 46 | 1018.3 |
| 20260504002337 | 64 | 0 | 0.0 | 0.0 | 0.00 | 0.00 | 0.00 | 46 | 1018.3 |
| 20260504001845 | 64 | 0 | 0.0 | 2.0 | 0.00 | 0.00 | 0.00 | 45 | 1018.3 |
| 20260504001339 | 64 | 0 | 0.0 | 2.0 | 0.00 | 0.00 | 0.00 | 44 | 1018.3 |
| 20260504000841 | 65 | 171 | 1.0 | 1.0 | 0.00 | 0.00 | 0.00 | 45 | 1018.3 |
| 20260504000337 | 65 | 0 | 0.0 | 1.0 | 0.00 | 0.00 | 0.00 | 45 | 1018.3 |
| 20260503235843 | 65 | 0 | 0.0 | 1.0 | 0.00 | 0.00 | 0.00 | 44 | 1018.2 |
| 20260503235342 | 66 | 0 | 0.0 | 1.0 | 0.00 | 0.00 | 0.00 | 43 | 1018.0 |
| 20260503234842 | 66 | 0 | 0.0 | 1.0 | 0.00 | 0.00 | 0.00 | 43 | 1018.0 |
| 20260503234337 | 66 | 0 | 0.0 | 1.0 | 0.00 | 0.00 | 0.00 | 42 | 1017.9 |
| 20260503233840 | 66 | 0 | 0.0 | 2.0 | 0.00 | 0.00 | 0.00 | 41 | 1018.1 |
| 20260503233339 | 67 | 0 | 0.0 | 2.0 | 0.00 | 0.00 | 0.00 | 41 | 1018.0 |